This is the latest recevied weather packets stored in our database for station/object DH2PG-6. If no packets are shown the sender has not sent any weather packets the latest 10 day(s).
| Time | Temp. | Humidity | Pressure | Rain* | Wind** | Luminosity | Snow |
|---|---|---|---|---|---|---|---|
| 1787929876 | 22.22° C | 61% | 1008.5 hPa | 0.51 mm | - | - | - |
| 1787929576 | 22.22° C | 62% | 1008.6 hPa | 0.51 mm | - | - | - |
| 1787929276 | 21.67° C | 61% | 1008.6 hPa | 0.51 mm | - | - | - |
| 1787928975 | 21.67° C | 62% | 1008.5 hPa | 0.51 mm | - | - | - |
| 1787928675 | 21.67° C | 63% | 1008.4 hPa | 0.51 mm | - | - | - |
| 1787928375 | 21.67° C | 63% | 1008.5 hPa | 0.51 mm | - | - | - |
| 1787928074 | 21.67° C | 65% | 1008.3 hPa | 0.51 mm | - | - | - |
| 1787927774 | 21.11° C | 65% | 1008.4 hPa | 0.51 mm | - | - | - |
| 1787927474 | 21.11° C | 66% | 1008.3 hPa | 0.51 mm | - | - | - |
| 1787927173 | 21.11° C | 66% | 1008.3 hPa | 0.51 mm | - | - | - |
| 1787926273 | 20.56° C | 70% | 1008.2 hPa | 0 mm | - | - | - |
| 1787925672 | 20.56° C | 75% | 1008.2 hPa | 0 mm | - | - | - |
| 1787925372 | 20.56° C | 77% | 1008.3 hPa | 0 mm | - | - | - |
| 1787925072 | 20° C | 76% | 1008.4 hPa | 0 mm | - | - | - |
| 1787924771 | 20.56° C | 77% | 1008.5 hPa | 0 mm | - | - | - |
| 1787924171 | 20° C | 79% | 1008.5 hPa | 0 mm | - | - | - |
| 1787923870 | 20° C | 80% | 1008.5 hPa | 0 mm | - | - | - |
| 1787922969 | 18.89° C | 83% | 1008.4 hPa | 2.54 mm | - | - | - |
| 1787922669 | 18.89° C | 84% | 1008.4 hPa | 2.54 mm | - | - | - |
| 1787922369 | 18.33° C | 83% | 1008.5 hPa | 2.54 mm | - | - | - |
| 1787922069 | 17.78° C | 84% | 1008.4 hPa | 2.54 mm | - | - | - |
| 1787921768 | 17.78° C | 84% | 1008.5 hPa | 2.54 mm | - | - | - |
| 1787921168 | 16.11° C | 84% | 1008.8 hPa | 2.54 mm | - | - | - |
| 1787920567 | 15.56° C | 82% | 1008.8 hPa | 2.54 mm | - | - | - |
| 1787920267 | 15.56° C | 80% | 1008.9 hPa | 2.54 mm | - | - | - |
* Rain latest hour (hover to see other rain measurements)
** Current wind speed in m/s (hover to see current wind gust speed)